User: anonymous   Login
Location: Unspecified
(0.0000°N, 0.0000°E)
Time: 23:53:38
(UTC+00:00)
Language:

STARLINK-33664 - Orbit

View from above orbital plane
View from above orbital plane
View from above satellite
View from above satellite

Ground track
Ground track

The orbit is defined by the following mean orbital elements,

1 63415U          26145.41119708 +.00000000 +00000-0 +42194-3 0 00004
2 63415  43.0067  33.7339 0000965 260.6425  99.4318 15.27596977    06
Epoch (UTC): 25 May 2026 09:52:07
Eccentricity: 0.0000965
inclination: 43.0067°
perigee height: 482 km
apogee height: 484 km
right ascension of ascending node: 33.7339°
argument of perigee: 260.6425°
revolutions per day: 15.27596977
mean anomaly at epoch: 99.4318°

The dashed part of the orbit path shows where the satellite is in the earth's shadow,  

DLR